Date String (YYYY-MM-DD hh:mm:ss) UTC,Instrument flags,Ambient pressure (hPa),Sample flow (lpm),Bypass flow (lpm),Sample temperature (°C),Ambient temperature (°C),ASC tube jacket temperature (°C),LED temperature (°C),Box temperature (°C),Sample RH (%),Span deviation,Mass concentration (μg/m³),Mass concentration (μg/m³),Mass concentration (μg/m³)
DateTimeUTC,F1_M11,P_M11,Q1_M11,Q2_M11,T1_M11,T2_M11,T3_M11,T4_M11,T5_M11,U1_M11,ZSPAN_M11,X2_M11,X0_M11,X1_M11
2022-06-28 01:00:00,,0832.1,5.01,0.00,29.3,28.5,00.0,38.0,31.3,17.2,0000.0,0001.62,0002.49,0001.33
2022-06-28 01:01:00,,0832.1,5.01,0.00,29.3,28.5,00.0,38.1,31.3,17.3,0000.0,0001.64,0002.69,0001.34
2022-06-28 01:02:00,,0832.1,4.99,0.00,29.4,28.3,00.0,38.0,31.3,16.8,0000.0,0001.66,0003.00,0001.36
2022-06-28 01:03:00,,0832.2,5.00,0.00,29.3,27.6,00.0,38.0,31.1,17.4,0000.0,0001.64,0002.98,0001.36
2022-06-28 01:04:00,,0832.2,5.01,0.00,29.3,27.3,00.0,38.0,31.0,20.2,0000.0,0001.67,0003.17,0001.38
2022-06-28 01:05:00,,0832.2,5.00,0.00,29.2,27.3,00.0,38.0,31.0,20.1,0000.0,0001.72,0003.23,0001.41
2022-06-28 01:06:00,,0832.2,4.99,0.00,29.2,27.4,00.0,38.0,31.0,19.6,0000.0,0001.79,0003.40,0001.43
2022-06-28 01:07:00,,0832.3,4.99,0.00,29.2,27.5,00.0,38.0,31.0,19.9,0000.0,0001.85,0003.57,0001.45
2022-06-28 01:08:00,,0832.2,5.01,0.00,29.2,27.6,00.0,38.0,31.0,19.7,0000.0,0001.94,0003.78,0001.47
2022-06-28 01:09:00,,0832.3,5.01,0.00,29.2,27.7,00.0,38.0,31.1,20.3,0000.0,0002.00,0003.93,0001.49
2022-06-28 01:10:00,,0832.3,4.99,0.00,29.2,27.9,00.0,38.0,31.1,21.5,0000.0,0002.01,0003.96,0001.51
2022-06-28 01:11:00,,0832.3,5.00,0.00,29.2,28.0,00.0,38.0,31.1,22.4,0000.0,0002.03,0004.02,0001.51
2022-06-28 01:12:00,,0832.4,5.01,0.00,29.2,28.1,00.0,38.0,31.2,23.1,0000.0,0002.06,0004.51,0001.52
2022-06-28 01:13:00,,0832.4,5.01,0.00,29.3,28.2,00.0,38.0,31.2,23.6,0000.0,0002.12,0004.54,0001.53
2022-06-28 01:14:00,,0832.4,4.99,0.00,29.3,28.3,00.0,38.0,31.3,23.8,0000.0,0002.18,0004.57,0001.56
2022-06-28 01:15:00,,0832.4,5.01,0.00,29.3,28.3,00.0,38.0,31.3,22.8,0000.0,0002.19,0004.38,0001.58
2022-06-28 01:16:00,,0832.4,5.00,0.00,29.3,28.4,00.0,38.1,31.3,23.0,0000.0,0002.21,0004.32,0001.59
2022-06-28 01:17:00,,0832.3,4.99,0.00,29.4,28.5,00.0,38.1,31.4,22.1,0000.0,0002.20,0004.26,0001.59
2022-06-28 01:18:00,,0832.3,4.99,0.00,29.4,28.5,00.0,38.1,31.4,21.5,0000.0,0002.20,0004.15,0001.60
2022-06-28 01:19:00,,0832.3,5.00,0.00,29.4,28.4,00.0,38.1,31.4,21.4,0000.0,0002.18,0004.10,0001.61
2022-06-28 01:20:00,,0832.4,5.00,0.00,29.4,27.7,00.0,38.1,31.2,21.5,0000.0,0002.20,0004.14,0001.63
2022-06-28 01:21:00,,0832.4,5.01,0.00,29.3,27.3,00.0,38.0,31.1,21.9,0000.0,0002.27,0004.28,0001.63
2022-06-28 01:22:00,,0832.3,4.99,0.00,29.3,27.3,00.0,38.0,31.1,21.3,0000.0,0002.24,0004.24,0001.63
2022-06-28 01:23:00,,0832.3,4.99,0.00,29.2,27.4,00.0,38.0,31.0,21.7,0000.0,0002.23,0003.67,0001.63
2022-06-28 01:24:00,,0832.3,5.00,0.00,29.2,27.5,00.0,38.0,31.1,21.7,0000.0,0002.18,0003.34,0001.62
2022-06-28 01:25:00,,0832.4,5.00,0.00,29.2,27.6,00.0,38.0,31.1,21.5,0000.0,0002.12,0003.20,0001.60
2022-06-28 01:26:00,,0832.3,5.01,0.00,29.2,27.8,00.0,38.0,31.1,21.2,0000.0,0002.08,0003.13,0001.57
2022-06-28 01:27:00,,0832.3,4.99,0.00,29.3,27.9,00.0,38.0,31.2,21.7,0000.0,0002.04,0003.08,0001.56
2022-06-28 01:28:00,,0832.3,4.99,0.00,29.3,28.0,00.0,38.1,31.2,21.5,0000.0,0002.01,0003.00,0001.56
2022-06-28 01:29:00,,0832.3,5.00,0.00,29.3,28.1,00.0,38.1,31.3,21.5,0000.0,0002.03,0003.07,0001.55
2022-06-28 01:30:00,,0832.4,5.01,0.00,29.3,28.2,00.0,38.1,31.3,20.5,0000.0,0002.00,0003.34,0001.54
2022-06-28 01:31:00,,0832.4,4.98,0.00,29.3,28.3,00.0,38.1,31.3,20.4,0000.0,0001.92,0003.19,0001.52
2022-06-28 01:32:00,,0832.4,5.01,0.00,29.4,28.4,00.0,38.1,31.3,20.8,0000.0,0001.87,0003.14,0001.52
2022-06-28 01:33:00,,0832.4,5.00,0.00,29.4,28.4,00.0,38.1,31.4,21.4,0000.0,0001.88,0003.15,0001.53
2022-06-28 01:34:00,,0832.5,4.99,0.00,29.4,28.5,00.0,38.2,31.4,21.0,0000.0,0001.86,0003.11,0001.53
2022-06-28 01:35:00,,0832.5,4.99,0.00,29.5,28.5,00.0,38.2,31.4,20.7,0000.0,0001.85,0003.15,0001.53
2022-06-28 01:36:00,,0832.4,5.01,0.00,29.5,28.0,00.0,38.1,31.3,21.1,0000.0,0001.83,0003.10,0001.53
2022-06-28 01:37:00,,0832.4,5.00,0.00,29.4,27.4,00.0,38.1,31.1,20.9,0000.0,0001.81,0003.06,0001.53
2022-06-28 01:38:00,,0832.5,4.99,0.00,29.3,27.3,00.0,38.1,31.1,20.1,0000.0,0001.82,0003.06,0001.53
2022-06-28 01:39:00,,0832.4,5.00,0.00,29.3,27.3,00.0,38.1,31.0,20.2,0000.0,0001.86,0003.15,0001.55
2022-06-28 01:40:00,,0832.4,4.99,0.00,29.3,27.4,00.0,38.1,31.0,20.2,0000.0,0001.84,0003.10,0001.56
2022-06-28 01:41:00,,0832.4,5.00,0.00,29.2,27.5,00.0,38.1,31.1,20.2,0000.0,0001.88,0002.84,0001.58
2022-06-28 01:42:00,,0832.4,5.01,0.00,29.2,27.7,00.0,38.1,31.1,20.2,0000.0,0001.94,0002.96,0001.60
2022-06-28 01:43:00,,0832.3,4.99,0.00,29.2,27.8,00.0,38.1,31.1,20.2,0000.0,0001.93,0002.86,0001.61
2022-06-28 01:44:00,,0832.3,5.00,0.00,29.3,27.9,00.0,38.1,31.2,20.2,0000.0,0001.92,0002.80,0001.61
2022-06-28 01:45:00,,0832.3,4.99,0.00,29.3,28.1,00.0,38.1,31.2,19.9,0000.0,0001.90,0002.75,0001.61
2022-06-28 01:46:00,,0832.3,5.00,0.00,29.3,28.2,00.0,38.1,31.3,20.0,0000.0,0001.88,0002.67,0001.62
2022-06-28 01:47:00,,0832.3,5.00,0.00,29.3,28.2,00.0,38.1,31.3,20.4,0000.0,0001.91,0002.70,0001.63
2022-06-28 01:48:00,,0832.5,5.00,0.00,29.4,28.3,00.0,38.1,31.3,20.3,0000.0,0001.94,0003.54,0001.64
2022-06-28 01:49:00,,0832.4,5.01,0.00,29.4,28.4,00.0,38.1,31.4,20.4,0000.0,0001.95,0003.56,0001.64
2022-06-28 01:50:00,,0832.5,4.99,0.00,29.4,28.5,00.0,38.1,31.4,20.8,0000.0,0001.94,0003.54,0001.64
2022-06-28 01:51:00,,0832.5,5.01,0.00,29.4,28.5,00.0,38.2,31.4,21.1,0000.0,0001.96,0003.64,0001.64
2022-06-28 01:52:00,,0832.5,5.01,0.00,29.5,28.4,00.0,38.2,31.4,21.4,0000.0,0001.98,0003.70,0001.64
2022-06-28 01:53:00,,0832.5,5.01,0.00,29.4,27.6,00.0,38.1,31.2,21.0,0000.0,0001.96,0004.20,0001.64
2022-06-28 01:54:00,,0832.6,5.00,0.00,29.4,27.3,00.0,38.1,31.1,20.7,0000.0,0001.99,0005.54,0001.65
2022-06-28 01:55:00,,0832.6,5.00,0.00,29.3,27.2,00.0,38.1,31.1,21.4,0000.0,0002.00,0005.62,0001.65
2022-06-28 01:56:00,,0832.6,5.01,0.00,29.3,27.3,00.0,38.1,31.0,21.7,0000.0,0002.04,0005.74,0001.65
2022-06-28 01:57:00,,0832.6,5.00,0.00,29.3,27.4,00.0,38.1,31.1,21.3,0000.0,0002.09,0005.85,0001.65
2022-06-28 01:58:00,,0832.6,4.99,0.00,29.2,27.6,00.0,38.1,31.1,21.0,0000.0,0002.13,0005.93,0001.67
2022-06-28 01:59:00,,0832.6,5.00,0.00,29.2,27.7,00.0,38.1,31.1,20.8,0000.0,0002.14,0006.14,0001.68
